This is the latest recevied weather packets stored in our database for station/object LX0WX-13. If no packets are shown the sender has not sent any weather packets the latest 10 day(s).
| Time | Temp. | Humidity | Pressure | Rain* | Wind** | Luminosity | Snow |
|---|---|---|---|---|---|---|---|
| 1777283178 | 16.67° C | 30% | 1018.2 hPa | 0 mm | - | - | - |
| 1777282879 | 16.67° C | 30% | 1018.2 hPa | 0 mm | - | - | - |
| 1777282579 | 16.11° C | 30% | 1018.3 hPa | 0 mm | - | - | - |
| 1777282279 | 16.11° C | 31% | 1018.4 hPa | 0 mm | - | - | - |
| 1777281978 | 16.11° C | 33% | 1018 hPa | 0 mm | - | - | - |
| 1777281679 | 15.56° C | 33% | 1018.1 hPa | 0 mm | - | - | - |
| 1777281379 | 15.56° C | 32% | 1018.1 hPa | 0 mm | - | - | - |
| 1777281079 | 15.56° C | 31% | 1018.2 hPa | 0 mm | - | - | - |
| 1777280779 | 16.11° C | 30% | 1018.3 hPa | 0 mm | - | - | - |
| 1777280479 | 15.56° C | 31% | 1018.1 hPa | 0 mm | - | - | - |
| 1777280179 | 15° C | 30% | 1018.1 hPa | 0 mm | - | - | - |
| 1777279879 | 15.56° C | 29% | 1018.3 hPa | 0 mm | - | - | - |
| 1777279579 | 16.11° C | 29% | 1018.4 hPa | 0 mm | - | - | - |
| 1777279279 | 17.22° C | 29% | 1018.4 hPa | 0 mm | - | - | - |
| 1777278979 | 17.78° C | 29% | 1018.5 hPa | 0 mm | - | - | - |
| 1777278679 | 17.78° C | 29% | 1018.6 hPa | 0 mm | - | - | - |
| 1777278379 | 17.78° C | 30% | 1018.5 hPa | 0 mm | - | - | - |
| 1777278079 | 17.22° C | 30% | 1018.5 hPa | 0 mm | - | - | - |
| 1777277779 | 17.22° C | 28% | 1018.4 hPa | 0 mm | - | - | - |
| 1777277479 | 17.78° C | 28% | 1018.4 hPa | 0 mm | - | - | - |
| 1777277179 | 17.78° C | 28% | 1018.5 hPa | 0 mm | - | - | - |
| 1777276879 | 17.78° C | 30% | 1018.5 hPa | 0 mm | - | - | - |
| 1777276579 | 17.22° C | 31% | 1018.5 hPa | 0 mm | - | - | - |
| 1777276358 | 16.67° C | 31% | 1018.4 hPa | 0 mm | - | - | - |
| 1777276279 | 17.22° C | 31% | 1018.5 hPa | 0 mm | - | - | - |
* Rain latest hour (hover to see other rain measurements)
** Current wind speed in m/s (hover to see current wind gust speed)